Year,Month,Day,Hour,Minute,Value (Times are PST for insolation in W/m^2)
2008,05,29,00,00,0.00
2008,05,29,00,01,0.00
2008,05,29,00,02,0.00
2008,05,29,00,03,0.00
2008,05,29,00,04,0.00
2008,05,29,00,05,0.00
2008,05,29,00,06,0.00
2008,05,29,00,07,0.00
2008,05,29,00,08,0.00
2008,05,29,00,09,0.00
2008,05,29,00,10,0.00
2008,05,29,00,11,0.00
2008,05,29,00,12,0.00
2008,05,29,00,13,0.00
2008,05,29,00,14,0.00
2008,05,29,00,15,0.00
2008,05,29,00,16,0.00
2008,05,29,00,17,0.00
2008,05,29,00,18,0.00
2008,05,29,00,19,0.00
2008,05,29,00,20,0.00
2008,05,29,00,21,0.00
2008,05,29,00,22,0.00
2008,05,29,00,23,0.00
2008,05,29,00,24,0.00
2008,05,29,00,25,0.00
2008,05,29,00,26,0.00
2008,05,29,00,27,0.00
2008,05,29,00,28,0.00
2008,05,29,00,29,0.00
2008,05,29,00,30,0.00
2008,05,29,00,31,0.00
2008,05,29,00,32,0.00
2008,05,29,00,33,0.00
2008,05,29,00,34,0.00
2008,05,29,00,35,0.00
2008,05,29,00,36,0.00
2008,05,29,00,37,0.00
2008,05,29,00,38,0.00
2008,05,29,00,39,0.00
2008,05,29,00,40,0.00
2008,05,29,00,41,0.00
2008,05,29,00,42,0.00
2008,05,29,00,43,0.00
2008,05,29,00,44,0.00
2008,05,29,00,45,0.00
2008,05,29,00,46,0.00
2008,05,29,00,47,0.00
2008,05,29,00,48,0.00
2008,05,29,00,49,0.00
2008,05,29,00,50,0.00
2008,05,29,00,51,0.00
2008,05,29,00,52,0.00
2008,05,29,00,53,0.00
2008,05,29,00,54,0.00
2008,05,29,00,55,0.00
2008,05,29,00,56,0.00
2008,05,29,00,57,0.00
2008,05,29,00,58,0.00
2008,05,29,00,59,0.00
2008,05,29,01,00,0.00
2008,05,29,01,01,0.00
2008,05,29,01,02,0.00
2008,05,29,01,03,0.00
2008,05,29,01,04,0.00
2008,05,29,01,05,0.00
2008,05,29,01,06,0.00
2008,05,29,01,07,0.00
2008,05,29,01,08,0.00
2008,05,29,01,09,0.00
2008,05,29,01,10,0.00
2008,05,29,01,11,0.00
2008,05,29,01,12,0.00
2008,05,29,01,13,0.00
2008,05,29,01,14,0.00
2008,05,29,01,15,0.00
2008,05,29,01,16,0.00
2008,05,29,01,17,0.00
2008,05,29,01,18,0.00
2008,05,29,01,19,0.00
2008,05,29,01,20,0.00
2008,05,29,01,21,0.00
2008,05,29,01,22,0.00
2008,05,29,01,23,0.00
2008,05,29,01,24,0.00
2008,05,29,01,25,0.00
2008,05,29,01,26,0.00
2008,05,29,01,27,0.00
2008,05,29,01,28,0.00
2008,05,29,01,29,0.00
2008,05,29,01,30,0.00
2008,05,29,01,31,0.00
2008,05,29,01,32,0.00
2008,05,29,01,33,0.00
2008,05,29,01,34,0.00
2008,05,29,01,35,0.00
2008,05,29,01,36,0.00
2008,05,29,01,37,0.00
2008,05,29,01,38,0.00
2008,05,29,01,39,0.00
2008,05,29,01,40,0.00
2008,05,29,01,41,0.00
2008,05,29,01,42,0.00
2008,05,29,01,43,0.00
2008,05,29,01,44,0.00
2008,05,29,01,45,0.00
2008,05,29,01,46,0.00
2008,05,29,01,47,0.00
2008,05,29,01,48,0.00
2008,05,29,01,49,0.00
2008,05,29,01,50,0.00
2008,05,29,01,51,0.00
2008,05,29,01,52,0.00
2008,05,29,01,53,0.00
2008,05,29,01,54,0.00
2008,05,29,01,55,0.00
2008,05,29,01,56,0.00
2008,05,29,01,57,0.00
2008,05,29,01,58,0.00
2008,05,29,01,59,0.00
2008,05,29,02,00,0.00
2008,05,29,02,01,0.00
2008,05,29,02,02,0.00
2008,05,29,02,03,0.00
2008,05,29,02,04,0.00
2008,05,29,02,05,0.00
2008,05,29,02,06,0.00
2008,05,29,02,07,0.00
2008,05,29,02,08,0.00
2008,05,29,02,09,0.00
2008,05,29,02,10,0.00
2008,05,29,02,11,0.00
2008,05,29,02,12,0.00
2008,05,29,02,13,0.00
2008,05,29,02,14,0.00
2008,05,29,02,15,0.00
2008,05,29,02,16,0.00
2008,05,29,02,17,0.00
2008,05,29,02,18,0.00
2008,05,29,02,19,0.00
2008,05,29,02,20,0.00
2008,05,29,02,21,0.00
2008,05,29,02,22,0.00
2008,05,29,02,23,0.00
2008,05,29,02,24,0.00
2008,05,29,02,25,0.00
2008,05,29,02,26,0.00
2008,05,29,02,27,0.00
2008,05,29,02,28,0.00
2008,05,29,02,29,0.00
2008,05,29,02,30,0.00
2008,05,29,02,31,0.00
2008,05,29,02,32,0.00
2008,05,29,02,33,0.00
2008,05,29,02,34,0.00
2008,05,29,02,35,0.00
2008,05,29,02,36,0.00
2008,05,29,02,37,0.00
2008,05,29,02,38,0.00
2008,05,29,02,39,0.00
2008,05,29,02,40,0.00
2008,05,29,02,41,0.00
2008,05,29,02,42,0.00
2008,05,29,02,43,0.00
2008,05,29,02,44,0.00
2008,05,29,02,45,0.00
2008,05,29,02,46,0.00
2008,05,29,02,47,0.00
2008,05,29,02,48,0.00
2008,05,29,02,49,0.00
2008,05,29,02,50,0.00
2008,05,29,02,51,0.00
2008,05,29,02,52,0.00
2008,05,29,02,53,0.00
2008,05,29,02,54,0.00
2008,05,29,02,55,0.00
2008,05,29,02,56,0.00
2008,05,29,02,57,0.00
2008,05,29,02,58,0.00
2008,05,29,02,59,0.00
2008,05,29,03,00,0.00
2008,05,29,03,01,0.00
2008,05,29,03,02,0.00
2008,05,29,03,03,0.00
2008,05,29,03,04,0.00
2008,05,29,03,05,0.00
2008,05,29,03,06,0.00
2008,05,29,03,07,0.00
2008,05,29,03,08,0.00
2008,05,29,03,09,0.00
2008,05,29,03,10,0.00
2008,05,29,03,11,0.00
2008,05,29,03,12,0.00
2008,05,29,03,13,0.00
2008,05,29,03,14,0.00
2008,05,29,03,15,0.00
2008,05,29,03,16,0.00
2008,05,29,03,17,0.00
2008,05,29,03,18,0.00
2008,05,29,03,19,0.00
2008,05,29,03,20,0.00
2008,05,29,03,21,0.00
2008,05,29,03,22,0.00
2008,05,29,03,23,0.00
2008,05,29,03,24,0.00
2008,05,29,03,25,0.00
2008,05,29,03,26,0.00
2008,05,29,03,27,0.00
2008,05,29,03,28,0.00
2008,05,29,03,29,0.00
2008,05,29,03,30,0.00
2008,05,29,03,31,0.00
2008,05,29,03,32,0.00
2008,05,29,03,33,0.00
2008,05,29,03,34,0.00
2008,05,29,03,35,0.00
2008,05,29,03,36,0.00
2008,05,29,03,37,0.00
2008,05,29,03,38,0.00
2008,05,29,03,39,0.00
2008,05,29,03,40,0.00
2008,05,29,03,41,0.00
2008,05,29,03,42,0.00
2008,05,29,03,43,0.00
2008,05,29,03,44,0.00
2008,05,29,03,45,0.00
2008,05,29,03,46,0.00
2008,05,29,03,47,0.00
2008,05,29,03,48,0.00
2008,05,29,03,49,0.00
2008,05,29,03,50,0.00
2008,05,29,03,51,0.00
2008,05,29,03,52,0.00
2008,05,29,03,53,0.00
2008,05,29,03,54,0.00
2008,05,29,03,55,0.00
2008,05,29,03,56,0.00
2008,05,29,03,57,0.00
2008,05,29,03,58,0.00
2008,05,29,03,59,0.00
2008,05,29,04,00,0.00
2008,05,29,04,01,0.00
2008,05,29,04,02,0.00
2008,05,29,04,03,0.00
2008,05,29,04,04,0.00
2008,05,29,04,05,0.00
2008,05,29,04,06,0.00
2008,05,29,04,07,0.00
2008,05,29,04,08,0.00
2008,05,29,04,09,0.00
2008,05,29,04,10,0.00
2008,05,29,04,11,0.00
2008,05,29,04,12,0.00
2008,05,29,04,13,0.00
2008,05,29,04,14,0.00
2008,05,29,04,15,0.00
2008,05,29,04,16,0.00
2008,05,29,04,17,0.00
2008,05,29,04,18,0.00
2008,05,29,04,19,0.00
2008,05,29,04,20,0.00
2008,05,29,04,21,0.00
2008,05,29,04,22,0.00
2008,05,29,04,23,0.00
2008,05,29,04,24,0.00
2008,05,29,04,25,0.00
2008,05,29,04,26,0.00
2008,05,29,04,27,0.00
2008,05,29,04,28,0.00
2008,05,29,04,29,0.00
2008,05,29,04,30,0.00
2008,05,29,04,31,0.00
2008,05,29,04,32,0.00
2008,05,29,04,33,0.00
2008,05,29,04,34,0.00
2008,05,29,04,35,0.00
2008,05,29,04,36,0.00
2008,05,29,04,37,0.00
2008,05,29,04,38,0.00
2008,05,29,04,39,0.00
2008,05,29,04,40,0.00
2008,05,29,04,41,0.00
2008,05,29,04,42,0.00
2008,05,29,04,43,0.00
2008,05,29,04,44,0.00
2008,05,29,04,45,0.00
2008,05,29,04,46,0.00
2008,05,29,04,47,0.00
2008,05,29,04,48,0.00
2008,05,29,04,49,0.00
2008,05,29,04,50,0.00
2008,05,29,04,51,0.00
2008,05,29,04,52,0.00
2008,05,29,04,53,0.00
2008,05,29,04,54,0.00
2008,05,29,04,55,0.00
2008,05,29,04,56,0.00
2008,05,29,04,57,0.00
2008,05,29,04,58,0.00
2008,05,29,04,59,0.00
2008,05,29,05,00,0.00
2008,05,29,05,01,0.00
2008,05,29,05,02,0.00
2008,05,29,05,03,0.00
2008,05,29,05,04,0.00
2008,05,29,05,05,0.00
2008,05,29,05,06,0.00
2008,05,29,05,07,0.00
2008,05,29,05,08,0.00
2008,05,29,05,09,0.00
2008,05,29,05,10,0.00
2008,05,29,05,11,0.00
2008,05,29,05,12,0.00
2008,05,29,05,13,0.00
2008,05,29,05,14,0.00
2008,05,29,05,15,0.00
2008,05,29,05,16,0.00
2008,05,29,05,17,0.00
2008,05,29,05,18,0.00
2008,05,29,05,19,1.50
2008,05,29,05,20,5.00
2008,05,29,05,21,5.00
2008,05,29,05,22,5.00
2008,05,29,05,23,5.00
2008,05,29,05,24,6.20
2008,05,29,05,25,7.00
2008,05,29,05,26,7.00
2008,05,29,05,27,7.00
2008,05,29,05,28,7.00
2008,05,29,05,29,8.60
2008,05,29,05,30,9.00
2008,05,29,05,31,9.00
2008,05,29,05,32,10.70
2008,05,29,05,33,11.00
2008,05,29,05,34,11.00
2008,05,29,05,35,12.00
2008,05,29,05,36,12.10
2008,05,29,05,37,14.00
2008,05,29,05,38,14.00
2008,05,29,05,39,14.40
2008,05,29,05,40,16.00
2008,05,29,05,41,16.00
2008,05,29,05,42,16.00
2008,05,29,05,43,16.60
2008,05,29,05,44,18.40
2008,05,29,05,45,19.00
2008,05,29,05,46,20.10
2008,05,29,05,47,22.20
2008,05,29,05,48,23.00
2008,05,29,05,49,23.00
2008,05,29,05,50,23.00
2008,05,29,05,51,24.50
2008,05,29,05,52,25.80
2008,05,29,05,53,27.80
2008,05,29,05,54,28.00
2008,05,29,05,55,29.90
2008,05,29,05,56,28.30
2008,05,29,05,57,26.00
2008,05,29,05,58,27.90
2008,05,29,05,59,33.00
2008,05,29,06,00,33.00
2008,05,29,06,01,33.20
2008,05,29,06,02,35.30
2008,05,29,06,03,37.00
2008,05,29,06,04,37.60
2008,05,29,06,05,39.90
2008,05,29,06,06,42.70
2008,05,29,06,07,43.10
2008,05,29,06,08,42.00
2008,05,29,06,09,42.00
2008,05,29,06,10,40.90
2008,05,29,06,11,41.10
2008,05,29,06,12,44.60
2008,05,29,06,13,46.60
2008,05,29,06,14,50.10
2008,05,29,06,15,49.40
2008,05,29,06,16,47.30
2008,05,29,06,17,48.90
2008,05,29,06,18,49.00
2008,05,29,06,19,47.00
2008,05,29,06,20,49.00
2008,05,29,06,21,47.00
2008,05,29,06,22,42.10
2008,05,29,06,23,44.00
2008,05,29,06,24,44.40
2008,05,29,06,25,48.20
2008,05,29,06,26,53.00
2008,05,29,06,27,57.70
2008,05,29,06,28,71.40
2008,05,29,06,29,76.60
2008,05,29,06,30,76.00
2008,05,29,06,31,80.00
2008,05,29,06,32,85.10
2008,05,29,06,33,84.80
2008,05,29,06,34,86.20
2008,05,29,06,35,90.00
2008,05,29,06,36,93.80
2008,05,29,06,37,98.20
2008,05,29,06,38,105.40
2008,05,29,06,39,112.30
2008,05,29,06,40,118.60
2008,05,29,06,41,129.50
2008,05,29,06,42,132.00
2008,05,29,06,43,134.70
2008,05,29,06,44,128.00
2008,05,29,06,45,109.60
2008,05,29,06,46,122.20
2008,05,29,06,47,138.60
2008,05,29,06,48,190.10
2008,05,29,06,49,182.20
2008,05,29,06,50,117.10
2008,05,29,06,51,126.40
2008,05,29,06,52,143.90
2008,05,29,06,53,182.50
2008,05,29,06,54,199.00
2008,05,29,06,55,185.80
2008,05,29,06,56,165.80
2008,05,29,06,57,138.60
2008,05,29,06,58,117.40
2008,05,29,06,59,104.50
2008,05,29,07,00,107.40
2008,05,29,07,01,114.80
2008,05,29,07,02,157.20
2008,05,29,07,03,226.60
2008,05,29,07,04,295.00
2008,05,29,07,05,253.00
2008,05,29,07,06,308.00
2008,05,29,07,07,308.00
2008,05,29,07,08,181.00
2008,05,29,07,09,183.50
2008,05,29,07,10,193.00
2008,05,29,07,11,145.10
2008,05,29,07,12,220.00
2008,05,29,07,13,200.00
2008,05,29,07,14,200.00
2008,05,29,07,15,173.80
2008,05,29,07,16,125.00
2008,05,29,07,17,219.10
2008,05,29,07,18,288.50
2008,05,29,07,19,267.80
2008,05,29,07,20,283.00
2008,05,29,07,21,185.80
2008,05,29,07,22,125.20
2008,05,29,07,23,127.00
2008,05,29,07,24,127.00
2008,05,29,07,25,165.70
2008,05,29,07,26,141.40
2008,05,29,07,27,144.30
2008,05,29,07,28,146.00
2008,05,29,07,29,146.00
2008,05,29,07,30,146.00
2008,05,29,07,31,150.10
2008,05,29,07,32,167.20
2008,05,29,07,33,169.00
2008,05,29,07,34,213.60
2008,05,29,07,35,381.00
2008,05,29,07,36,381.00
2008,05,29,07,37,305.70
2008,05,29,07,38,155.00
2008,05,29,07,39,155.00
2008,05,29,07,40,155.00
2008,05,29,07,41,291.60
2008,05,29,07,42,410.10
2008,05,29,07,43,408.00
2008,05,29,07,44,253.40
2008,05,29,07,45,172.50
2008,05,29,07,46,174.00
2008,05,29,07,47,174.00
2008,05,29,07,48,421.10
2008,05,29,07,49,452.40
2008,05,29,07,50,452.00
2008,05,29,07,51,452.00
2008,05,29,07,52,483.00
2008,05,29,07,53,480.10
2008,05,29,07,54,480.00
2008,05,29,07,55,483.10
2008,05,29,07,56,506.50
2008,05,29,07,57,510.00
2008,05,29,07,58,510.00
2008,05,29,07,59,510.00
2008,05,29,08,00,414.40
2008,05,29,08,01,176.00
2008,05,29,08,02,156.30
2008,05,29,08,03,173.60
2008,05,29,08,04,204.10
2008,05,29,08,05,222.00
2008,05,29,08,06,255.10
2008,05,29,08,07,243.50
2008,05,29,08,08,241.50
2008,05,29,08,09,283.60
2008,05,29,08,10,249.70
2008,05,29,08,11,232.00
2008,05,29,08,12,508.20
2008,05,29,08,13,503.40
2008,05,29,08,14,496.00
2008,05,29,08,15,496.00
2008,05,29,08,16,496.00
2008,05,29,08,17,496.00
2008,05,29,08,18,577.00
2008,05,29,08,19,577.00
2008,05,29,08,20,577.00
2008,05,29,08,21,582.20
2008,05,29,08,22,599.50
2008,05,29,08,23,601.00
2008,05,29,08,24,601.00
2008,05,29,08,25,576.30
2008,05,29,08,26,516.60
2008,05,29,08,27,480.00
2008,05,29,08,28,540.80
2008,05,29,08,29,592.90
2008,05,29,08,30,547.70
2008,05,29,08,31,569.20
2008,05,29,08,32,598.00
2008,05,29,08,33,334.50
2008,05,29,08,34,332.20
2008,05,29,08,35,343.00
2008,05,29,08,36,343.00
2008,05,29,08,37,343.00
2008,05,29,08,38,343.00
2008,05,29,08,39,464.00
2008,05,29,08,40,361.50
2008,05,29,08,41,273.50
2008,05,29,08,42,269.00
2008,05,29,08,43,269.00
2008,05,29,08,44,269.00
2008,05,29,08,45,295.00
2008,05,29,08,46,355.40
2008,05,29,08,47,300.70
2008,05,29,08,48,272.00
2008,05,29,08,49,275.30
2008,05,29,08,50,285.80
2008,05,29,08,51,309.30
2008,05,29,08,52,309.40
2008,05,29,08,53,302.00
2008,05,29,08,54,299.90
2008,05,29,08,55,287.00
2008,05,29,08,56,276.80
2008,05,29,08,57,276.00
2008,05,29,08,58,651.10
2008,05,29,08,59,628.40
2008,05,29,09,00,624.00
2008,05,29,09,01,624.00
2008,05,29,09,02,701.00
2008,05,29,09,03,701.00
2008,05,29,09,04,703.80
2008,05,29,09,05,729.00
2008,05,29,09,06,729.00
2008,05,29,09,07,729.00
2008,05,29,09,08,729.00
2008,05,29,09,09,724.30
2008,05,29,09,10,728.20
2008,05,29,09,11,749.00
2008,05,29,09,12,749.00
2008,05,29,09,13,749.00
2008,05,29,09,14,749.00
2008,05,29,09,15,529.00
2008,05,29,09,16,309.00
2008,05,29,09,17,309.00
2008,05,29,09,18,305.80
2008,05,29,09,19,286.70
2008,05,29,09,20,285.90
2008,05,29,09,21,256.80
2008,05,29,09,22,253.00
2008,05,29,09,23,253.00
2008,05,29,09,24,253.00
2008,05,29,09,25,253.00
2008,05,29,09,26,298.50
2008,05,29,09,27,289.80
2008,05,29,09,28,289.00
2008,05,29,09,29,294.30
2008,05,29,09,30,292.00
2008,05,29,09,31,292.00
2008,05,29,09,32,292.00
2008,05,29,09,33,292.00
2008,05,29,09,34,292.00
2008,05,29,09,35,534.70
2008,05,29,09,36,838.00
2008,05,29,09,37,838.00
2008,05,29,09,38,838.00
2008,05,29,09,39,838.00
2008,05,29,09,40,783.60
2008,05,29,09,41,761.00
2008,05,29,09,42,768.00
2008,05,29,09,43,759.90
2008,05,29,09,44,758.00
2008,05,29,09,45,758.00
2008,05,29,09,46,733.00
2008,05,29,09,47,736.60
2008,05,29,09,48,735.10
2008,05,29,09,49,738.30
2008,05,29,09,50,744.70
2008,05,29,09,51,756.50
2008,05,29,09,52,764.50
2008,05,29,09,53,784.80
2008,05,29,09,54,797.10
2008,05,29,09,55,803.50
2008,05,29,09,56,818.90
2008,05,29,09,57,848.30
2008,05,29,09,58,843.40
2008,05,29,09,59,813.60
2008,05,29,10,00,807.00
2008,05,29,10,01,807.00
2008,05,29,10,02,683.20
2008,05,29,10,03,582.00
2008,05,29,10,04,791.30
2008,05,29,10,05,902.40
2008,05,29,10,06,902.00
2008,05,29,10,07,902.00
2008,05,29,10,08,902.00
2008,05,29,10,09,902.00
2008,05,29,10,10,902.00
2008,05,29,10,11,902.00
2008,05,29,10,12,789.00
2008,05,29,10,13,789.00
2008,05,29,10,14,789.00
2008,05,29,10,15,809.50
2008,05,29,10,16,926.00
2008,05,29,10,17,926.00
2008,05,29,10,18,926.00
2008,05,29,10,19,926.00
2008,05,29,10,20,926.00
2008,05,29,10,21,926.00
2008,05,29,10,22,652.40
2008,05,29,10,23,305.20
2008,05,29,10,24,295.00
2008,05,29,10,25,632.80
2008,05,29,10,26,825.40
2008,05,29,10,27,831.00
2008,05,29,10,28,831.00
2008,05,29,10,29,831.00
2008,05,29,10,30,821.40
2008,05,29,10,31,825.60
2008,05,29,10,32,831.00
2008,05,29,10,33,854.00
2008,05,29,10,34,879.00
2008,05,29,10,35,900.20
2008,05,29,10,36,963.00
2008,05,29,10,37,1006.10
2008,05,29,10,38,969.00
2008,05,29,10,39,969.00
2008,05,29,10,40,969.00
2008,05,29,10,41,969.00
2008,05,29,10,42,753.70
2008,05,29,10,43,359.00
2008,05,29,10,44,432.40
2008,05,29,10,45,515.00
2008,05,29,10,46,374.70
2008,05,29,10,47,254.70
2008,05,29,10,48,248.30
2008,05,29,10,49,295.20
2008,05,29,10,50,330.00
2008,05,29,10,51,783.80
2008,05,29,10,52,877.70
2008,05,29,10,53,878.80
2008,05,29,10,54,880.90
2008,05,29,10,55,882.00
2008,05,29,10,56,888.30
2008,05,29,10,57,893.00
2008,05,29,10,58,912.00
2008,05,29,10,59,941.30
2008,05,29,11,00,976.00
2008,05,29,11,01,976.00
2008,05,29,11,02,976.00
2008,05,29,11,03,756.60
2008,05,29,11,04,230.00
2008,05,29,11,05,230.00
2008,05,29,11,06,230.00
2008,05,29,11,07,230.00
2008,05,29,11,08,566.20
2008,05,29,11,09,858.00
2008,05,29,11,10,855.10
2008,05,29,11,11,864.50
2008,05,29,11,12,877.90
2008,05,29,11,13,892.90
2008,05,29,11,14,910.80
2008,05,29,11,15,929.80
2008,05,29,11,16,936.50
2008,05,29,11,17,954.90
2008,05,29,11,18,954.30
2008,05,29,11,19,896.00
2008,05,29,11,20,896.00
2008,05,29,11,21,858.50
2008,05,29,11,22,867.00
2008,05,29,11,23,867.50
2008,05,29,11,24,871.20
2008,05,29,11,25,880.80
2008,05,29,11,26,895.80
2008,05,29,11,27,899.60
2008,05,29,11,28,880.30
2008,05,29,11,29,864.60
2008,05,29,11,30,866.10
2008,05,29,11,31,865.00
2008,05,29,11,32,866.50
2008,05,29,11,33,869.20
2008,05,29,11,34,870.00
2008,05,29,11,35,868.60
2008,05,29,11,36,868.00
2008,05,29,11,37,871.10
2008,05,29,11,38,870.40
2008,05,29,11,39,871.80
2008,05,29,11,40,873.90
2008,05,29,11,41,877.00
2008,05,29,11,42,877.00
2008,05,29,11,43,879.00
2008,05,29,11,44,881.00
2008,05,29,11,45,881.10
2008,05,29,11,46,882.20
2008,05,29,11,47,883.60
2008,05,29,11,48,882.80
2008,05,29,11,49,884.90
2008,05,29,11,50,882.60
2008,05,29,11,51,884.60
2008,05,29,11,52,885.20
2008,05,29,11,53,884.00
2008,05,29,11,54,885.10
2008,05,29,11,55,886.00
2008,05,29,11,56,879.40
2008,05,29,11,57,862.40
2008,05,29,11,58,863.80
2008,05,29,11,59,869.00
2008,05,29,12,00,875.40
2008,05,29,12,01,878.60
2008,05,29,12,02,883.40
2008,05,29,12,03,892.50
2008,05,29,12,04,895.00
2008,05,29,12,05,897.70
2008,05,29,12,06,898.00
2008,05,29,12,07,900.00
2008,05,29,12,08,895.50
2008,05,29,12,09,900.00
2008,05,29,12,10,900.00
2008,05,29,12,11,900.40
2008,05,29,12,12,902.50
2008,05,29,12,13,904.40
2008,05,29,12,14,904.60
2008,05,29,12,15,904.40
2008,05,29,12,16,905.00
2008,05,29,12,17,906.00
2008,05,29,12,18,907.90
2008,05,29,12,19,909.00
2008,05,29,12,20,910.30
2008,05,29,12,21,911.00
2008,05,29,12,22,911.80
2008,05,29,12,23,911.30
2008,05,29,12,24,911.00
2008,05,29,12,25,911.90
2008,05,29,12,26,913.90
2008,05,29,12,27,916.00
2008,05,29,12,28,914.00
2008,05,29,12,29,914.00
2008,05,29,12,30,915.90
2008,05,29,12,31,916.20
2008,05,29,12,32,918.10
2008,05,29,12,33,919.30
2008,05,29,12,34,920.50
2008,05,29,12,35,919.00
2008,05,29,12,36,919.00
2008,05,29,12,37,919.00
2008,05,29,12,38,919.80
2008,05,29,12,39,921.90
2008,05,29,12,40,923.00
2008,05,29,12,41,921.90
2008,05,29,12,42,922.20
2008,05,29,12,43,924.70
2008,05,29,12,44,926.00
2008,05,29,12,45,926.00
2008,05,29,12,46,925.20
2008,05,29,12,47,910.20
2008,05,29,12,48,907.00
2008,05,29,12,49,902.30
2008,05,29,12,50,919.00
2008,05,29,12,51,921.00
2008,05,29,12,52,928.00
2008,05,29,12,53,926.00
2008,05,29,12,54,926.10
2008,05,29,12,55,928.00
2008,05,29,12,56,928.30
2008,05,29,12,57,930.00
2008,05,29,12,58,929.10
2008,05,29,12,59,926.70
2008,05,29,13,00,928.80
2008,05,29,13,01,929.20
2008,05,29,13,02,928.90
2008,05,29,13,03,928.90
2008,05,29,13,04,928.00
2008,05,29,13,05,928.00
2008,05,29,13,06,926.70
2008,05,29,13,07,927.40
2008,05,29,13,08,928.00
2008,05,29,13,09,928.00
2008,05,29,13,10,926.40
2008,05,29,13,11,926.00
2008,05,29,13,12,926.00
2008,05,29,13,13,928.00
2008,05,29,13,14,928.00
2008,05,29,13,15,928.00
2008,05,29,13,16,926.00
2008,05,29,13,17,926.20
2008,05,29,13,18,928.00
2008,05,29,13,19,928.00
2008,05,29,13,20,927.50
2008,05,29,13,21,926.50
2008,05,29,13,22,928.00
2008,05,29,13,23,928.00
2008,05,29,13,24,928.00
2008,05,29,13,25,927.20
2008,05,29,13,26,926.00
2008,05,29,13,27,926.00
2008,05,29,13,28,927.00
2008,05,29,13,29,926.70
2008,05,29,13,30,927.40
2008,05,29,13,31,926.00
2008,05,29,13,32,925.00
2008,05,29,13,33,925.00
2008,05,29,13,34,925.00
2008,05,29,13,35,925.00
2008,05,29,13,36,925.00
2008,05,29,13,37,923.20
2008,05,29,13,38,925.00
2008,05,29,13,39,923.10
2008,05,29,13,40,924.90
2008,05,29,13,41,923.00
2008,05,29,13,42,923.00
2008,05,29,13,43,923.00
2008,05,29,13,44,923.00
2008,05,29,13,45,923.00
2008,05,29,13,46,923.00
2008,05,29,13,47,923.00
2008,05,29,13,48,922.10
2008,05,29,13,49,921.00
2008,05,29,13,50,921.00
2008,05,29,13,51,921.00
2008,05,29,13,52,919.70
2008,05,29,13,53,919.00
2008,05,29,13,54,919.00
2008,05,29,13,55,918.20
2008,05,29,13,56,916.40
2008,05,29,13,57,917.50
2008,05,29,13,58,918.00
2008,05,29,13,59,916.30
2008,05,29,14,00,916.00
2008,05,29,14,01,914.10
2008,05,29,14,02,915.90
2008,05,29,14,03,914.00
2008,05,29,14,04,913.80
2008,05,29,14,05,912.00
2008,05,29,14,06,911.80
2008,05,29,14,07,911.20
2008,05,29,14,08,911.70
2008,05,29,14,09,910.20
2008,05,29,14,10,909.00
2008,05,29,14,11,909.00
2008,05,29,14,12,909.00
2008,05,29,14,13,909.00
2008,05,29,14,14,907.80
2008,05,29,14,15,905.70
2008,05,29,14,16,905.00
2008,05,29,14,17,904.30
2008,05,29,14,18,902.40
2008,05,29,14,19,902.00
2008,05,29,14,20,902.00
2008,05,29,14,21,900.40
2008,05,29,14,22,898.00
2008,05,29,14,23,898.00
2008,05,29,14,24,898.00
2008,05,29,14,25,897.90
2008,05,29,14,26,896.00
2008,05,29,14,27,896.00
2008,05,29,14,28,895.80
2008,05,29,14,29,894.50
2008,05,29,14,30,893.00
2008,05,29,14,31,893.00
2008,05,29,14,32,892.30
2008,05,29,14,33,890.10
2008,05,29,14,34,889.00
2008,05,29,14,35,888.50
2008,05,29,14,36,888.00
2008,05,29,14,37,886.80
2008,05,29,14,38,884.80
2008,05,29,14,39,884.00
2008,05,29,14,40,882.50
2008,05,29,14,41,881.20
2008,05,29,14,42,881.00
2008,05,29,14,43,881.00
2008,05,29,14,44,879.10
2008,05,29,14,45,877.30
2008,05,29,14,46,875.20
2008,05,29,14,47,879.00
2008,05,29,14,48,875.00
2008,05,29,14,49,872.00
2008,05,29,14,50,872.00
2008,05,29,14,51,871.70
2008,05,29,14,52,869.50
2008,05,29,14,53,867.80
2008,05,29,14,54,867.00
2008,05,29,14,55,866.30
2008,05,29,14,56,865.00
2008,05,29,14,57,864.00
2008,05,29,14,58,862.00
2008,05,29,14,59,860.40
2008,05,29,15,00,860.60
2008,05,29,15,01,859.30
2008,05,29,15,02,856.60
2008,05,29,15,03,854.50
2008,05,29,15,04,854.00
2008,05,29,15,05,853.20
2008,05,29,15,06,850.00
2008,05,29,15,07,849.00
2008,05,29,15,08,847.00
2008,05,29,15,09,846.00
2008,05,29,15,10,844.10
2008,05,29,15,11,842.00
2008,05,29,15,12,842.00
2008,05,29,15,13,841.80
2008,05,29,15,14,839.50
2008,05,29,15,15,837.00
2008,05,29,15,16,836.40
2008,05,29,15,17,834.30
2008,05,29,15,18,831.90
2008,05,29,15,19,830.00
2008,05,29,15,20,830.00
2008,05,29,15,21,830.00
2008,05,29,15,22,827.80
2008,05,29,15,23,824.20
2008,05,29,15,24,823.00
2008,05,29,15,25,821.60
2008,05,29,15,26,821.00
2008,05,29,15,27,817.10
2008,05,29,15,28,814.40
2008,05,29,15,29,812.50
2008,05,29,15,30,812.00
2008,05,29,15,31,810.00
2008,05,29,15,32,809.00
2008,05,29,15,33,807.00
2008,05,29,15,34,805.10
2008,05,29,15,35,802.90
2008,05,29,15,36,801.80
2008,05,29,15,37,800.00
2008,05,29,15,38,799.20
2008,05,29,15,39,794.40
2008,05,29,15,40,788.70
2008,05,29,15,41,788.40
2008,05,29,15,42,789.00
2008,05,29,15,43,787.70
2008,05,29,15,44,786.00
2008,05,29,15,45,784.90
2008,05,29,15,46,783.00
2008,05,29,15,47,780.70
2008,05,29,15,48,776.50
2008,05,29,15,49,775.00
2008,05,29,15,50,772.70
2008,05,29,15,51,770.30
2008,05,29,15,52,768.20
2008,05,29,15,53,768.00
2008,05,29,15,54,766.40
2008,05,29,15,55,763.00
2008,05,29,15,56,759.00
2008,05,29,15,57,758.00
2008,05,29,15,58,758.00
2008,05,29,15,59,757.80
2008,05,29,16,00,755.70
2008,05,29,16,01,753.60
2008,05,29,16,02,751.10
2008,05,29,16,03,749.00
2008,05,29,16,04,748.30
2008,05,29,16,05,745.80
2008,05,29,16,06,743.10
2008,05,29,16,07,741.00
2008,05,29,16,08,738.90
2008,05,29,16,09,737.50
2008,05,29,16,10,735.70
2008,05,29,16,11,733.60
2008,05,29,16,12,731.50
2008,05,29,16,13,729.40
2008,05,29,16,14,726.80
2008,05,29,16,15,726.00
2008,05,29,16,16,722.80
2008,05,29,16,17,721.00
2008,05,29,16,18,719.00
2008,05,29,16,19,715.20
2008,05,29,16,20,715.00
2008,05,29,16,21,711.90
2008,05,29,16,22,709.20
2008,05,29,16,23,705.00
2008,05,29,16,24,704.60
2008,05,29,16,25,702.40
2008,05,29,16,26,699.90
2008,05,29,16,27,697.30
2008,05,29,16,28,695.30
2008,05,29,16,29,693.50
2008,05,29,16,30,692.10
2008,05,29,16,31,690.10
2008,05,29,16,32,687.20
2008,05,29,16,33,684.70
2008,05,29,16,34,682.80
2008,05,29,16,35,679.70
2008,05,29,16,36,675.90
2008,05,29,16,37,675.00
2008,05,29,16,38,675.00
2008,05,29,16,39,670.30
2008,05,29,16,40,668.00
2008,05,29,16,41,664.00
2008,05,29,16,42,663.00
2008,05,29,16,43,659.20
2008,05,29,16,44,657.00
2008,05,29,16,45,656.60
2008,05,29,16,46,653.70
2008,05,29,16,47,651.40
2008,05,29,16,48,648.50
2008,05,29,16,49,645.80
2008,05,29,16,50,642.70
2008,05,29,16,51,641.20
2008,05,29,16,52,638.10
2008,05,29,16,53,634.50
2008,05,29,16,54,631.90
2008,05,29,16,55,629.80
2008,05,29,16,56,628.40
2008,05,29,16,57,625.60
2008,05,29,16,58,624.00
2008,05,29,16,59,622.00
2008,05,29,17,00,617.70
2008,05,29,17,01,617.00
2008,05,29,17,02,613.20
2008,05,29,17,03,612.20
2008,05,29,17,04,608.00
2008,05,29,17,05,606.00
2008,05,29,17,06,601.00